Location: Rostock
(54.0884°N, 12.1234°E)
Time: 11:32:47
(UTC+01:00)

ISS - Pass Details

Date: 04 January 2018
Orbit: 402 x 407 km, 51.6° (Epoch: 22 January)

Event Time Altitude Azimuth Distance (km) Brightness Sun altitude
Exits shadow 05:20:43 24° 114° (ESE) 898 -1.5 -26.3°
Drops below altitude 10° 05:22:25 10° 93° (E) 1,471 0.0 -26.0°
Sets 05:24:37 0° 84° (E) 2,335 1.3 -25.7°
